Index of /debian-ports/pool-kfreebsd-i386/main/t

[ICO]NameLast modifiedSize

[PARENTDIR]Parent Directory  -
[DIR]t-coffee/2019-05-19 17:47 -
[DIR]t1utils/2019-05-19 17:47 -
[DIR]t2n/2019-05-19 17:47 -
[DIR]t4kcommon/2019-08-13 20:18 -
[DIR]tabble/2019-05-19 17:47 -
[DIR]tableau-parm/2019-05-19 17:47 -
[DIR]tablix2/2019-05-19 17:47 -
[DIR]tachyon/2019-05-19 17:47 -
[DIR]tack/2019-05-19 17:47 -
[DIR]tagcoll2/2019-05-19 17:47 -
[DIR]taggrepper/2019-09-05 08:13 -
[DIR]taglib-extras/2019-05-19 17:47 -
[DIR]taglib/2019-05-19 17:47 -
[DIR]tagpy/2019-10-28 19:59 -
[DIR]taktuk/2019-07-21 19:57 -
[DIR]tali/2019-09-29 01:54 -
[DIR]talksoup.app/2019-05-19 17:47 -
[DIR]talloc/2019-05-19 17:47 -
[DIR]tamil-gtk2im/2019-05-19 17:47 -
[DIR]tamuanova/2019-05-19 17:47 -
[DIR]tandem-mass/2019-05-19 17:47 -
[DIR]tangerine/2019-05-19 17:47 -
[DIR]tanglet/2019-05-19 17:47 -
[DIR]tango/2019-05-19 17:47 -
[DIR]taningia/2019-05-19 17:47 -
[DIR]tantan/2019-05-19 17:47 -
[DIR]taopm/2019-05-19 17:47 -
[DIR]tap-plugins/2019-05-19 17:47 -
[DIR]tapecalc/2019-05-19 17:47 -
[DIR]taptempo/2019-05-19 17:47 -
[DIR]tar/2019-05-19 17:47 -
[DIR]tarlz/2019-10-13 14:00 -
[DIR]tart/2019-05-19 17:47 -
[DIR]task-spooler/2019-05-19 17:47 -
[DIR]task/2019-05-19 17:47 -
[DIR]taskd/2019-05-19 17:47 -
[DIR]tasksh/2019-07-21 19:57 -
[DIR]tcd-utils/2019-05-19 17:47 -
[DIR]tcl-fitstcl/2019-08-04 08:03 -
[DIR]tcl-signal/2019-05-19 17:47 -
[DIR]tcl8.6/2019-05-19 17:47 -
[DIR]tcl8.7/2019-05-19 17:47 -
[DIR]tclap/2019-05-19 17:47 -
[DIR]tclcl/2019-05-19 17:47 -
[DIR]tclcurl/2019-05-19 17:47 -
[DIR]tclex/2019-05-19 17:47 -
[DIR]tclgeoip/2019-05-19 17:47 -
[DIR]tcllib/2019-05-19 17:47 -
[DIR]tclodbc/2019-05-19 17:47 -
[DIR]tclreadline/2019-10-29 13:52 -
[DIR]tclthread/2019-11-06 13:53 -
[DIR]tcltk-defaults/2019-05-19 17:47 -
[DIR]tcltls/2019-09-29 01:54 -
[DIR]tcltrf/2019-05-19 17:47 -
[DIR]tcludp/2019-05-19 17:47 -
[DIR]tclvfs/2019-05-19 17:47 -
[DIR]tclx8.4/2019-09-24 01:53 -
[DIR]tclxml/2019-08-19 20:01 -
[DIR]tcp-wrappers/2019-05-19 17:47 -
[DIR]tcpdump/2019-10-12 13:51 -
[DIR]tcpflow/2019-08-05 20:09 -
[DIR]tcpick/2019-05-19 17:47 -
[DIR]tcpreen/2019-05-19 17:47 -
[DIR]tcpreplay/2019-07-30 13:56 -
[DIR]tcpslice/2019-05-19 17:47 -
[DIR]tcpspy/2019-05-19 17:47 -
[DIR]tcpstat/2019-05-19 17:47 -
[DIR]tcptrace/2019-05-24 13:50 -
[DIR]tcptraceroute/2019-07-23 02:02 -
[DIR]tcptrack/2019-05-19 17:47 -
[DIR]tcputils/2019-05-19 17:47 -
[DIR]tcpxtract/2019-05-19 17:47 -
[DIR]tcs/2019-05-19 17:47 -
[DIR]tcsh/2019-07-17 01:57 -
[DIR]tdb/2019-05-19 17:47 -
[DIR]tdbc/2019-05-19 17:47 -
[DIR]tdbcmysql/2019-09-09 14:08 -
[DIR]tdbcodbc/2019-05-19 17:47 -
[DIR]tdbcpostgres/2019-05-19 17:47 -
[DIR]tdc/2019-11-05 01:45 -
[DIR]tdfsb/2019-05-19 17:47 -
[DIR]tdom/2019-05-19 17:47 -
[DIR]teckit/2019-05-19 17:47 -
[DIR]tecnoballz/2019-05-19 17:47 -
[DIR]teem/2019-05-19 17:47 -
[DIR]teensy-loader-cli/2019-05-19 17:47 -
[DIR]teeworlds/2019-05-19 17:47 -
[DIR]teg/2019-07-22 02:08 -
[DIR]telegnome/2019-09-05 20:13 -
[DIR]telepathy-accounts-signon/2019-05-19 17:47 -
[DIR]telepathy-farstream/2019-05-19 17:47 -
[DIR]telepathy-gabble/2019-05-19 17:47 -
[DIR]telepathy-glib/2019-05-19 17:47 -
[DIR]telepathy-haze/2019-05-19 17:47 -
[DIR]telepathy-idle/2019-05-19 17:47 -
[DIR]telepathy-logger-qt/2019-05-19 17:47 -
[DIR]telepathy-logger/2019-11-10 08:14 -
[DIR]telepathy-mission-control-5/2019-11-10 08:14 -
[DIR]telepathy-qt/2019-05-19 17:47 -
[DIR]telepathy-rakia/2019-05-19 17:47 -
[DIR]telepathy-salut/2019-05-19 17:47 -
[DIR]tellico/2019-05-19 17:47 -
[DIR]tempest-for-eliza/2019-05-19 17:47 -
[DIR]template-glib/2019-09-15 07:53 -
[DIR]tenace/2019-05-19 17:47 -
[DIR]tenmado/2019-05-19 17:47 -
[DIR]tennix/2019-05-19 17:47 -
[DIR]tepl/2019-05-19 17:47 -
[DIR]tercpp/2019-05-19 17:47 -
[DIR]termbox/2019-05-19 17:47 -
[DIR]termdebug/2019-05-19 17:47 -
[DIR]terminal.app/2019-05-19 17:47 -
[DIR]terminatorx/2019-05-19 17:47 -
[DIR]termit/2019-05-19 17:47 -
[DIR]termrec/2019-07-14 20:07 -
[DIR]teseq/2019-05-19 17:47 -
[DIR]tessa/2019-05-19 17:47 -
[DIR]tesseract/2019-05-19 17:47 -
[DIR]testdisk/2019-08-22 02:09 -
[DIR]tetgen/2019-05-19 17:47 -
[DIR]tetradraw/2019-05-19 17:47 -
[DIR]tetraproc/2019-10-04 01:58 -
[DIR]tetrinet/2019-05-19 17:47 -
[DIR]tetrinetx/2019-05-19 17:47 -
[DIR]tetzle/2019-05-19 17:47 -
[DIR]tevent/2019-05-19 17:47 -
[DIR]texinfo/2019-10-11 01:41 -
[DIR]texlive-bin/2019-09-19 08:00 -
[DIR]textdraw/2019-05-19 17:47 -
[DIR]textedit.app/2019-05-19 17:47 -
[DIR]tf/2019-05-19 17:47 -
[DIR]tf5/2019-05-19 17:47 -
[DIR]tfdocgen/2019-05-19 17:47 -
[DIR]tfortune/2019-09-05 20:13 -
[DIR]tftp-hpa/2019-05-19 17:47 -
[DIR]tgif/2019-05-19 17:47 -
[DIR]the/2019-05-19 17:47 -
[DIR]theano/2019-05-19 17:47 -
[DIR]theme-d/2019-11-02 07:52 -
[DIR]thepeg/2019-05-19 17:47 -
[DIR]therion/2019-05-19 17:47 -
[DIR]theseus/2019-05-19 17:47 -
[DIR]thin/2019-05-19 17:47 -
[DIR]thinkfan/2019-05-19 17:47 -
[DIR]threadscope/2019-05-19 17:47 -
[DIR]threadweaver/2019-05-19 17:47 -
[DIR]thunar-archive-plugin/2019-05-19 17:47 -
[DIR]thunar-media-tags-plugin/2019-05-19 17:47 -
[DIR]thunar-vcs-plugin/2019-05-19 17:47 -
[DIR]thunar/2019-08-15 20:06 -
[DIR]ticcutils/2019-05-19 17:47 -
[DIR]ticker/2019-05-19 17:47 -
[DIR]tickr/2019-05-19 17:47 -
[DIR]tideways/2019-05-19 17:47 -
[DIR]tidy-html5/2019-05-19 17:47 -
[DIR]tiff/2019-11-05 19:52 -
[DIR]tifffile/2019-05-19 17:47 -
[DIR]tig/2019-07-22 02:08 -
[DIR]tiger/2019-08-19 20:01 -
[DIR]tigervnc/2019-09-29 19:56 -
[DIR]tightvnc/2019-05-19 17:47 -
[DIR]tigr-glimmer/2019-05-19 17:47 -
[DIR]tikzit/2019-07-16 13:59 -
[DIR]tilda/2019-05-23 19:59 -
[DIR]tilde/2019-05-19 17:47 -
[DIR]tiled-qt/2019-05-19 17:47 -
[DIR]tiledarray/2019-05-19 17:47 -
[DIR]tilem/2019-05-19 17:47 -
[DIR]tilp2/2019-05-19 17:47 -
[DIR]timbl/2019-05-19 17:47 -
[DIR]timblserver/2019-05-19 17:47 -
[DIR]time/2019-05-19 17:47 -
[DIR]timelimit/2019-05-19 17:47 -
[DIR]timemachine/2019-07-22 08:03 -
[DIR]timemon.app/2019-05-19 17:47 -
[DIR]timeshift/2019-05-19 17:47 -
[DIR]timew/2019-05-19 17:47 -
[DIR]timidity/2019-05-19 17:47 -
[DIR]tin/2019-07-22 08:03 -
[DIR]tina/2019-05-19 17:47 -
[DIR]tinc/2019-08-26 20:05 -
[DIR]tint/2019-05-19 17:47 -
[DIR]tint2/2019-09-15 07:53 -
[DIR]tintii/2019-05-19 17:47 -
[DIR]tintin++/2019-05-19 17:47 -
[DIR]tinycdb/2019-05-19 17:47 -
[DIR]tinydyndns/2019-05-19 17:47 -
[DIR]tinyeartrainer/2019-05-19 17:47 -
[DIR]tinyirc/2019-05-19 17:47 -
[DIR]tinymux/2019-05-19 17:47 -
[DIR]tinyos-tools/2019-05-19 17:47 -
[DIR]tinyproxy/2019-05-19 17:47 -
[DIR]tinyscheme/2019-05-19 17:47 -
[DIR]tinyssh/2019-05-19 17:47 -
[DIR]tinysvm/2019-05-19 17:47 -
[DIR]tinywm/2019-05-19 17:47 -
[DIR]tinyxml/2019-05-19 17:47 -
[DIR]tinyxml2/2019-05-19 17:47 -
[DIR]tio/2019-05-19 17:47 -
[DIR]tipp10/2019-05-19 17:47 -
[DIR]tix/2019-05-19 17:47 -
[DIR]tk-html3/2019-05-19 17:47 -
[DIR]tk-table/2019-05-19 17:47 -
[DIR]tk8.6/2019-05-19 17:47 -
[DIR]tk8.7/2019-05-19 17:47 -
[DIR]tk707/2019-05-19 17:47 -
[DIR]tkblt/2019-10-24 13:47 -
[DIR]tkdesk/2019-05-19 17:47 -
[DIR]tkdnd/2019-05-19 17:47 -
[DIR]tkgate/2019-05-19 17:47 -
[DIR]tkhtml1/2019-05-19 17:47 -
[DIR]tkmpeg/2019-05-19 17:47 -
[DIR]tkpng/2019-05-19 17:47 -
[DIR]tkrplot/2019-05-19 17:47 -
[DIR]tktray/2019-05-19 17:47 -
[DIR]tktreectrl/2019-05-19 17:47 -
[DIR]tla/2019-05-19 17:47 -
[DIR]tlf/2019-05-19 17:47 -
[DIR]tlsh/2019-10-25 01:56 -
[DIR]tm-align/2019-07-31 01:55 -
[DIR]tmfs/2019-05-19 17:47 -
[DIR]tmispell-voikko/2019-05-19 17:47 -
[DIR]tmperamental/2019-05-19 17:47 -
[DIR]tmpreaper/2019-05-19 17:47 -
[DIR]tmux/2019-11-14 02:09 -
[DIR]tnat64/2019-05-19 17:47 -
[DIR]tnef/2019-05-19 17:47 -
[DIR]tnetstring3/2019-05-19 17:47 -
[DIR]tnftp/2019-05-19 17:47 -
[DIR]tnseq-transit/2019-05-19 17:47 -
[DIR]tntdb/2019-05-19 17:47 -
[DIR]tntnet/2019-05-19 17:47 -
[DIR]toastinfo/2019-05-19 17:47 -
[DIR]todoman/2019-05-19 17:47 -
[DIR]tofrodos/2019-05-19 17:47 -
[DIR]toga2/2019-05-19 17:47 -
[DIR]togl/2019-05-19 17:47 -
[DIR]toilet/2019-05-19 17:47 -
[DIR]tokyocabinet/2019-05-19 17:47 -
[DIR]tokyotyrant/2019-05-19 17:47 -
[DIR]tolua++/2019-05-19 17:47 -
[DIR]tolua/2019-05-19 17:47 -
[DIR]tomatoes/2019-05-19 17:47 -
[DIR]tomb/2019-11-10 08:14 -
[DIR]tomcat-native/2019-05-19 17:47 -
[DIR]tomsfastmath/2019-05-19 17:47 -
[DIR]tootle/2019-05-19 17:47 -
[DIR]topal/2019-07-22 08:03 -
[DIR]toppler/2019-05-19 17:47 -
[DIR]toppred/2019-05-19 17:47 -
[DIR]tor/2019-10-29 13:52 -
[DIR]torch3/2019-05-19 17:47 -
[DIR]torcs/2019-05-19 17:47 -
[DIR]torsocks/2019-05-19 17:47 -
[DIR]totem-pl-parser/2019-05-19 17:47 -
[DIR]totem/2019-05-19 17:47 -
[DIR]toulbar2/2019-05-19 17:47 -
[DIR]towitoko/2019-05-19 17:47 -
[DIR]tpm-quote-tools/2019-05-19 17:47 -
[DIR]tpm-tools/2019-05-19 17:47 -
[DIR]tpm2-tools/2019-05-19 17:47 -
[DIR]tpm2-tss/2019-05-19 17:47 -
[DIR]trabucco/2019-05-19 17:47 -
[DIR]tracetuner/2019-05-19 17:47 -
[DIR]tracker/2019-05-19 17:47 -
[DIR]tralics/2019-05-19 17:47 -
[DIR]transcalc/2019-05-19 17:47 -
[DIR]transcend/2019-05-19 17:47 -
[DIR]transcriber/2019-05-19 17:47 -
[DIR]translation-finder/2019-05-19 17:47 -
[DIR]transmission-remote-gtk/2019-05-19 17:47 -
[DIR]transrate-tools/2019-05-19 17:47 -
[DIR]transtermhp/2019-05-19 17:47 -
[DIR]traverso/2019-05-19 17:47 -
[DIR]travis/2019-05-19 17:47 -
[DIR]trayer/2019-05-19 17:47 -
[DIR]tre/2019-05-19 17:47 -
[DIR]tree-puzzle/2019-05-19 17:47 -
[DIR]tree/2019-05-19 17:47 -
[DIR]treesheets/2019-05-19 17:47 -
[DIR]treeviewx/2019-07-30 19:59 -
[DIR]treil/2019-05-19 17:47 -
[DIR]trend/2019-05-19 17:47 -
[DIR]trickle/2019-11-14 02:09 -
[DIR]trigger-rally/2019-09-07 08:07 -
[DIR]triplane/2019-05-19 17:47 -
[DIR]tripwire/2019-05-19 17:47 -
[DIR]troffcvt/2019-05-19 17:47 -
[DIR]trojan/2019-10-03 08:01 -
[DIR]trophy/2019-05-19 17:47 -
[DIR]trousers/2019-05-19 17:47 -
[DIR]trovacap/2019-05-19 17:47 -
[DIR]trueprint/2019-05-19 17:47 -
[DIR]trustedqsl/2019-07-31 13:59 -
[DIR]tse3/2019-05-19 17:47 -
[DIR]tseries/2019-08-18 08:05 -
[DIR]tslib/2019-10-22 19:46 -
[DIR]tsocks/2019-05-19 17:47 -
[DIR]tss2/2019-05-19 17:47 -
[DIR]tstools/2019-10-30 01:50 -
[DIR]tsung/2019-05-19 17:47 -
[DIR]ttf2ufm/2019-05-19 17:47 -
[DIR]ttfautohint/2019-08-11 02:03 -
[DIR]tth/2019-05-19 17:47 -
[DIR]tthsum/2019-05-19 17:47 -
[DIR]tty-clock/2019-05-19 17:47 -
[DIR]ttygif/2019-11-07 01:54 -
[DIR]ttylog/2019-05-19 17:47 -
[DIR]ttyrec/2019-05-19 17:47 -
[DIR]ttysnoop/2019-05-19 17:47 -
[DIR]tua/2019-05-19 17:47 -
[DIR]tudu/2019-07-21 19:57 -
[DIR]tulip/2019-05-19 17:47 -
[DIR]tumbler/2019-05-19 17:47 -
[DIR]tuna/2019-07-22 02:08 -
[DIR]tupi/2019-05-19 17:47 -
[DIR]tuxfootball/2019-05-19 17:47 -
[DIR]tuxguitar/2019-05-19 17:47 -
[DIR]tuxmath/2019-05-19 17:47 -
[DIR]tuxpaint-config/2019-05-19 17:47 -
[DIR]tuxpaint/2019-05-19 17:47 -
[DIR]tuxpuck/2019-05-19 17:47 -
[DIR]tuxtype/2019-08-13 20:18 -
[DIR]tvc/2019-05-19 17:47 -
[DIR]tweak/2019-05-19 17:47 -
[DIR]twinkle/2019-05-19 17:47 -
[DIR]twisted/2019-11-10 08:14 -
[DIR]twm/2019-05-19 17:47 -
[DIR]twofish/2019-05-19 17:47 -
[DIR]twolame/2019-10-16 01:52 -
[DIR]tworld/2019-05-19 17:47 -
[DIR]twpsk/2019-05-19 17:47 -
[DIR]txt2pdbdoc/2019-05-19 17:47 -
[DIR]tycho2/2019-05-19 17:47 -
[DIR]type-conv/2019-11-07 01:54 -
[DIR]typerep/2019-11-07 13:53 -
[DIR]typespeed/2019-05-19 17:47 -
[DIR]tyxml/2019-05-19 17:47 -
[DIR]tzc/2019-05-19 17:47 -

Apache Server at ftp.ports.debian.org Port 80